Overview Statistics Trail Chart Weather Telemetry Raw packets
 

This is the latest recevied weather packets stored in our database for station/object KN4AN. If no packets are shown the sender has not sent any weather packets the latest 10 day(s).

<< 94 95 96 97 98 99 100 >>
Time Temp. Humidity Pressure Rain* Wind** Luminosity Snow
1787857228 30° C 62% 1015 hPa 0 mm - 217 W/m² -
1787856927 30° C 62% 1015 hPa 0 mm - 366 W/m² -
1787856627 30° C 63% 1015.1 hPa 0 mm - 348 W/m² -
1787856322 30° C 64% 1015.2 hPa 0 mm - 414 W/m² -
1787856018 30.56° C 61% 1015.5 hPa 0 mm - 389 W/m² -
1787855717 30° C 63% 1015.6 hPa 0 mm - 516 W/m² -
1787855412 30° C 65% 1015.8 hPa 0 mm - 463 W/m² -
1787855108 29.44° C 66% 1015.6 hPa 0 mm - 387 W/m² -
1787854805 29.44° C 65% 1015.5 hPa 0 mm - 334 W/m² -
1787854501 29.44° C 65% 1015.3 hPa 0 mm - 409 W/m² -
1787854197 30° C 64% 1015.5 hPa 0 mm - 425 W/m² -
1787853892 29.44° C 63% 1015.5 hPa 0 mm - 412 W/m² -
1787853590 29.44° C 64% 1015.8 hPa 0 mm - 447 W/m² -
1787853285 29.44° C 65% 1015.8 hPa 0 mm - 505 W/m² -
1787852985 28.89° C 66% 1015.8 hPa 0 mm - 443 W/m² -
1787852680 30° C 62% 1015.6 hPa 0 mm - 553 W/m² -
1787852379 29.44° C 65% 1015.6 hPa 0 mm - 531 W/m² -
1787852078 29.44° C 66% 1015.7 hPa 0 mm - 559 W/m² -
1787851779 28.89° C 66% 1015.7 hPa 0 mm - 577 W/m² -
1787851473 28.33° C 65% 1015.7 hPa 0 mm - 409 W/m² -
1787851168 28.33° C 67% 1015.9 hPa 0 mm - 630 W/m² -
1787850864 28.33° C 67% 1015.9 hPa 0 mm - 511 W/m² -
1787850560 27.78° C 70% 1015.8 hPa 0 mm - 636 W/m² -
1787850255 27.78° C 70% 1015.9 hPa 0 mm - 407 W/m² -
1787849955 27.78° C 70% 1015.9 hPa 0 mm - 388 W/m² -

* Rain latest hour (hover to see other rain measurements)
** Current wind speed in m/s (hover to see current wind gust speed)